Showing default

CAPELLA-13 (ACADIA), 60419

Orbit data source: Space-Track

CAPELLA-13 (ACADIA), 60419 is a payload satellite owned by Capella Space (US) in LEO that was launched on Sun, 11 Aug 2024 UTC via an ELECTRON launch vehicle from the Rocket Lab Launch Complex (RLLC). Payload-class satellites include a variety of spacecraft equipped with specific instruments for various scientific and technological missions. These include communications satellites like Starlink; space stations such as the ISS; scientific satellites like the Hubble; Earth observation satellites from companies like Planet Labs, Umbra, and HawkEye 360; GPS; miniature CubeSats for education and research; and military/defense satellites.

Loading next visibility...
Identifier
60419, 2024-142A
Orbit
LEO
Country
Flag of USUS
Related business
Manufacturer
Capella Space
Mission
Operational Commercial Radar Imaging
Bus & Motor
ACADIA, Unknown motor
Mass
180 kg wet, ~150 kg dry
Launch date (UTC)
2024-08-11 (2 years ago)
Launch vehicle
ELECTRON
Launch site
Rocket Lab Launch Complex (RLLC)
Object type
Payload
Rocket body
Debris
Shape & HBR
Box + 2 Pan + 1 Dish + 1 Rod, 1.8 m
Radar Cross Section
0.463 m², Large (>1 m²)

Expand to show TLE details & history
Last TLE update: 17 hours ago

TLE from 17 hours ago
0 CAPELLA-13 (ACADIA)
1 60419U 24142A   26171.12206974  .00003646  00000-0  42258-3 0  9994
2 60419  53.0052  44.7555 0001357  92.6274 267.4862 14.87641893100842
Epoch: 2026-06-20T02:55Z
TLE epoch observation values (Epoch: 2026-06-20T02:55:46.825Z)
Latitude
0.00002°
Longitude
92.46918°
Altitude
606.214 km
Speed
7.557 km/s
True Right ascension
02h 59m 01s
True Declination
0° 00' 00"
Sunlit
Object was in daylight at epoch
Visualization orbit readout
Latitude
Unknown
Longitude
Unknown
Altitude
Unknown
Speed
Unknown
Apparent Right ascension
Unknown
Apparent Declination
Unknown
Sunlit
N/A
Visualization observer readout
Local Sidereal Time
07:12:40
Azimuth
Unknown
Elevation
Unknown
Doppler factor
Unknown
Orbital elements
Apogee altitude
606.53 km
Perigee altitude
604.634 km
Semi-major axis
6,983.719 km
Eccentricity
0.00014
Inclination
53.0052°
RAAN
44.7555°
Arg. of periapsis
92.6274°
True anomaly
267.47067°
Mean anomaly
267.4862°
Eccentric anomaly
267.47843°
Mean motion
3.71889 °/min
Orbital period
96.8 mins
BSTAR
0.00042258
Loading maneuver chart data...
Computing Atmospheric mass density...
Loading historical data...
Loading historical data...
Loading historical data...
Loading historical data...
Loading historical data...
Loading historical data...
Loading historical data...
Other satellites on launch #142 in the year 2024 (2024-08-11 UTC)

Documentation

Showing up to 5 results
|